Cloud_Cover
10 99 100 100 100 24 13 1 0 0 0 0 0 0 0 0 0 0 0 0 4 7 57 48 5 5 5 3 0 0 4 0 26 81 37 10 5 5 4 7 6 5 5
5 74 100 98 87 6 5 14 22 44 10 5 5 2 0 0 0 0 1 4 5 5 5 5 4 3 0 0 0 0 0 5 5 40 73 4 35 13 51 18 40 87 99
62 99 100 100 35 30 98 100 100 100 99 58 4 0 0 0 4 5 5 12 5 5 2 0 0 1 3 4 0 0 0 0 3 2 0 23 2 4 36 87 87 72 54
5 21 99 14 60 15 28 98 100 98 92 25 5 4 3 1 2 5 4 5 5 1 0 3 5 5 2 0 0 4 5 5 4 5 5 4 1 0 0 0 4 5 5
5 5 98 84 5 32 57 68 90 100 100 100 100 57 5 5 0 0 5 5 0 0 0 0 0 0 0 0 3 3 5 7 5 5 5 5 15 5 12 18 6 5 5
85 62 60 100 5 83 100 24 5 3 2 51 99 59 5 0 0 1 0 0 0 0 5 0 1 2 5 41 54 14 5 5 4 2 1 44 100 100 62 14 4 3 0
5 18 5 4 10 89 100 100 32 0 0 0 0 0 0 0 0 0 0 3 5 5 5 5 5 5 5 5 5 5 5 4 3 4 34 63 39 38 26 11 4 5 27
4 5 5 2 5 88 100 100 66 5 1 4 0 0 0 0 2 5 5 9 5 5 12 27 8 34 65 14 5 5 4 4 0 0 0 0 0 0 0 1 37 47 20
0 5 0 0 4 5 15 100 67 55 8 5 5 5 9 40 31 12 20 6 11 23 72 64 58 8 5 5 5 5 1 4 0 0 0 0 0 3 11 68 53 40 68
0 1 0 0 1 0 8 8 15 98 15 22 64 47 64 39 14 7 6 33 76 56 14 28 9 5 5 5 5 3 0 0 0 0 0 0 2 5 2 3 7 7 53
0 0 0 0 0 4 5 51 44 5 12 5 69 99 68 35 83 83 30 5 5 5 4 3 2 1 4 5 0 0 0 0 0 0 0 5 3 0 0 0 2 5 6
0 0 0 0 5 5 39 6 5 5 6 90 97 100 100 100 52 33 6 5 5 5 5 5 5 5 3 0 0 0 0 0 0 0 2 0 0 0 0 0 5 3 7
0 0 2 5 32 57 10 54 48 92 100 100 100 84 71 10 5 5 5 5 5 5 5 5 5 2 0 0 0 0 0 0 0 0 0 0 0 0 1 5 5 61 55
4 5 5 5 40 72 53 64 88 100 90 99 92 23 7 5 7 5 5 5 6 5 5 3 0 0 0 0 0 0 0 0 0 0 0 0 3 5 5 5 51 84 12
5 5 5 49 62 92 97 100 95 77 96 100 79 72 32 34 29 23 5 39 5 4 0 0 0 0 0 0 0 0 0 0 0 0 0 2 5 5 74 100 92 37 32
74 8 5 56 73 94 91 86 100 100 100 90 100 97 80 35 6 14 6 5 0 0 0 0 0 0 0 0 0 0 0 3 5 5 3 5 5 21 100 100 100 100 100
100 82 76 96 100 80 87 100 100 100 99 100 90 62 6 5 5 1 3 0 0 0 0 0 0 4 0 0 0 5 5 5 5 5 5 5 60 72 88 24 86 66 15
100 100 100 96 97 74 100 100 100 100 84 36 5 5 5 2 0 0 0 0 0 0 0 4 0 0 0 0 0 5 5 5 5 5 5 70 31 63 75 94 100 5 0
98 99 100 94 40 92 98 100 68 7 5 5 5 4 0 0 0 0 0 0 1 5 5 0 0 0 0 0 5 52 5 5 58 14 99 100 39 87 100 100 32 5 5
100 96 98 70 81 80 98 8 36 100 38 5 5 0 0 0 0 0 2 5 4 4 0 0 0 0 0 0 47 79 59 22 48 92 97 54 47 98 100 100 98 35 10
99 60 44 78 100 92 9 93 100 46 5 5 0 0 3 2 1 5 5 1 5 0 0 0 0 0 2 8 71 97 100 89 85 95 100 5 41 100 100 100 9 58 100
88 97 99 100 20 19 92 60 5 5 5 1 1 4 2 5 5 0 4 5 0 0 0 0 0 4 11 81 97 100 100 100 100 86 54 58 99 100 96 12 92 100 94
100 100 51 5 16 45 56 10 7 5 2 5 5 5 5 4 0 5 3 5 0 0 0 3 12 56 5 24 11 81 98 100 100 100 100 85 5 58 31 47 100 84 62
86 75 6 5 41 55 34 98 26 5 5 5 5 5 5 5 4 0 1 4 0 0 5 49 98 64 5 55 10 99 96 84 96 100 21 1 5 100 86 27 69 92 100
83 19 6 26 9 94 81 7 5 5 5 5 4 5 5 0 1 5 5 0 4 5 66 69 91 82 92 74 100 100 100 100 100 100 4 2 79 34 59 49 98 72 100
61 94 65 6 86 54 5 5 5 5 5 5 5 5 0 4 2 5 5 5 5 5 6 82 100 100 100 100 100 100 100 100 100 67 5 53 99 100 98 100 98 97 100